AirNav   Air Wisconsin pilot careers
 
 883 users online  

KPAO Palo Alto Airport
Palo Alto, California, USA

GOING TO PALO ALTO?


FAA INFORMATION EFFECTIVE 28 FEBRUARY 2019

Location

FAA Identifier: PAO
Lat/Long: 37-27-40.0000N / 122-06-54.2000W
37-27.666667N / 122-06.903333W
37.4611111 / -122.1150556
(estimated)
Elevation: 6.8 ft. / 2.1 m (surveyed)
Variation: 15E (1995)
Time zone: UTC -8 (UTC -7 during Daylight Saving Time)
Zip code: 94303

Airport Operations

Airport use: Open to the public
Activation date: 04/1940
Control tower: yes
ARTCC: OAKLAND CENTER
FSS: OAKLAND FLIGHT SERVICE STATION
NOTAMs facility: PAO (NOTAM-D service available)
Attendance: 0600-2000
Wind indicator: lighted
Segmented circle: yes
Lights: ARPT LGTS OPERATE CONTINUOUSLY WHEN ATCT CLSD.
Beacon: white-green (lighted land airport)
Operates sunset to sunrise.

Airport Communications

CTAF: 118.6
UNICOM: 122.95
ATIS: 135.275
PALO ALTO GROUND: 125.0 [0700-2100]
PALO ALTO TOWER: 118.6 [0700-2100]
NORCAL APPROACH: 121.3 133.95 134.5
NORCAL DEPARTURE: 121.3
WX ASOS at NUQ (4 nm SE): 124.175 (650-604-1529)
WX AWOS-3P at SQL (7 nm NW): 125.9 (650-593-0613)
WX ASOS at SJC (11 nm SE): 126.95 (408-969-0838)
WX ASOS at HWD (12 nm N): PHONE 510-786-3052
WX ASOS at SFO (16 nm NW): PHONE 650-827-8593
WX ASOS at OAK (16 nm N): PHONE 510-214-1776
WX AWOS-3 at HAF (19 nm W): 127.275 (650-728-5649)
WX ASOS at LVK (20 nm NE): PHONE 925-606-5412
  • FREQ 121.5 NOT AVAILABLE.

Nearby radio navigation aids

VOR radial/distance  VOR name  Freq  Var
OSIr046/8.9WOODSIDE VOR/DME113.9017E
SJCr287/9.6SAN JOSE VOR/DME114.1016E
SFOr111/15.6SAN FRANCISCO VOR/DME115.8017E
OAKr145/16.7OAKLAND VOR/DME116.8017E
SAUr124/30.6SAUSALITO VOR/DME116.2017E
CCRr168/35.2CONCORD VOR/DME117.0017E

 
NDB name  Hdg/Dist  Freq  Var  ID
TRACY231/34.820315ETCY - -.-. -.--

Airport Services

Fuel available: 100LL JET-A
SELF-FUELING AVAILBLE 24/7.
Parking: tiedowns
Airframe service: MAJOR
Powerplant service: MAJOR
Bottled oxygen: LOW

Runway Information

Runway 13/31

Dimensions: 2443 x 70 ft. / 745 x 21 m
Surface: asphalt, in good condition
Weight bearing capacity: 
Single wheel: 12.5
Runway edge lights: medium intensity
RUNWAY 13  RUNWAY 31
Latitude: 37-27.825110N37-27.509270N
Longitude: 122-07.059140W122-06.746155W
Elevation: 6.7 ft.6.8 ft.
Traffic pattern: leftright
Runway heading: 127 magnetic, 142 true307 magnetic, 322 true
Markings: basic, in good conditionnonprecision, in good condition
Visual slope indicator: 2-light PAPI on left (4.00 degrees glide path)2-light PAPI on left (4.00 degrees glide path)
Runway end identifier lights: yesyes
Touchdown point: yes, no lightsyes, no lights
Obstructions: 8 ft. berm, lighted, 300 ft. from runway, 12:1 slope to clear
RY 13 +8 FT DIKE 300 FT FROM RY END, OBSTN LGTD.
5 ft. berm, lighted, 230 ft. from runway, 6:1 slope to clear
RY 31 +5 FT DIKE 230 FT FROM RY END, OBSTN LGTD.

Airport Ownership and Management from official FAA records

Ownership: Publicly-owned
Owner: CITY OF PALO ALTO
250 HAMILTON AVENUE
PALO ALTO, CA 94301-2531
Phone (650) 329-2444
Manager: ANDREW SWANSON
250 HAMILTON AVENUE
PALO ALTO, CA 94301-2531
Phone (650) 329-2444

Airport Operational Statistics

Aircraft based on the field: 99
Single engine airplanes: 90
Multi engine airplanes: 8
Gliders airplanes: 1
    
Aircraft operations: avg 525/day *
60% local general aviation
40% transient general aviation
<1% air taxi
* for 12-month period ending 22 May 2018

Additional Remarks

+100 FT TRANSMISSION TWRS E OF ARPT.
ARPT RSTRD BY ARPT OPR TO ACFT WITH MAX CERTD WT OF 12500 LBS OR LESS.
FOR CD WHEN ATCT IS CLSD CTC NORCAL APCH AT 916-361-3748.
BIRDS ON AND INVOF AP.
TPA 1000 FT W & 800 FT E.
NOISE SENSITIVE AREA SE THRU NW OF ARPT. RCMD ACFT LDG AT PALO ALTO ARPT FLY AT OR ABOVE 1500 FT UNTIL XNG THE BAYSHORE FREEWAY, AND RCMD ACFT DEP RWY 31 TURN 10 DEG RIGHT AFTER TKOF TIL RCHG DUMBARTON AUTO BRIDGE.
BE ALERT FOR PEDESTRAINS XNG A DIKE ROAD 8 FT HIGH AND 300 FT FROM RWY 13 END.
CONS PEDESTRIAN/VEHICLE ACT ON ACFT TAXI LANES NOT DESIGNATED AS TWY MOV AREAS.
ARPT SCTY PRODS IN EFCT.
ON APCH TO RWY 31 BE ALERT TO POSS STG UPDRAFT FM WIND TUNNEL LCTD ON W SIDE OF MOFFETT FEDERAL AIRFIELD.

Instrument Procedures

NOTE: All procedures below are presented as PDF files. If you need a reader for these files, you should download the free Adobe Reader.

NOT FOR NAVIGATION. Please procure official charts for flight.
FAA instrument procedures published for use from 28 February 2019 at 0901Z to 28 March 2019 at 0900Z.

 
STARs - Standard Terminal Arrivals
POINT REYES THREE   download (230KB)
POINT REYES THREE   download (230KB)
 
IAPs - Instrument Approach Procedures
GPS RWY 31   download (208KB)
VOR/DME RWY 31   download (189KB)
NOTE: Special Alternate Minimums apply   download (33KB)
NOTE: Special Take-Off Minimums/Departure Procedures apply   download (180KB)

Other nearby airports with instrument procedures:

KNUQ - Moffett Federal Airfield (4 nm SE)
KSQL - San Carlos Airport (7 nm NW)
KSJC - Norman Y Mineta San Jose International Airport (11 nm SE)
KHWD - Hayward Executive Airport (12 nm N)
KSFO - San Francisco International Airport (16 nm NW)
KRHV - Reid-Hillview Airport of Santa Clara County (16 nm SE)
KOAK - Metropolitan Oakland International Airport (16 nm N)
KHAF - Half Moon Bay Airport (19 nm W)
KLVK - Livermore Municipal Airport (20 nm NE)
 
Loc | Ops | Rwys | IFR | FBO | Links
Com | Nav | Svcs | Stats | Notes

Watsonville Municipal Airport
 
Area around KPAO (Palo Alto Airport)
 
Road maps at: MapQuest Bing Google
 
Aerial photo
WARNING: Photo may not be current or correct
Aerial photo of KPAO (Palo Alto Airport)
Photo taken 11-Jan-2015
looking south-southwest.

Do you have a better or more recent aerial photo of Palo Alto Airport that you would like to share? If so, please send us your photo.

 
Sectional chart

 
Airport diagram
Diagram of KPAO (Palo Alto Airport)
Download PDF
of official airport diagram from the FAA

 
Airport distance calculator
Flying to Palo Alto Airport? Find the distance to fly.

From to KPAO

Sunrise and sunset
Times for 24-Mar-2019
 Local
(UTC-7)
 Zulu
(UTC)
Morning civil twilight06:4113:41
Sunrise07:0714:07
Sunset19:2302:23
Evening civil twilight19:4902:49

Current date and time
Zulu (UTC)  24-Mar-2019 22:33:22
Local (UTC-7)  24-Mar-2019 15:33:22
 
METAR
KPAO 242147Z 34005KT 10SM OVC200 16/07 A3016
KNUQ 
5nm SE 
242156Z 02007KT 10SM CLR 18/08 A3016 RMK AO2 SLP215 T01780083 $
KSQL 
7nm NW 
242154Z 00000KT 10SM OVC200 16/06 A3017
KSJC 
11nm SE 
242153Z 12003KT 10SM FEW035 BKN140 OVC200 19/M02 A3015 RMK AO2 SLP208 T01941022
KHWD 
12nm N 
242154Z 26009KT 10SM CLR 22/09 A3016 RMK AO2 SLP222 T02170089 $
KOAK 
15nm N 
242153Z 27008KT 10SM FEW012 OVC250 16/08 A3018 RMK AO2 SLP218 T01560083 $
KSFO 
15nm NW 
242156Z 02003KT 10SM FEW033 OVC200 16/04 A3016 RMK AO2 SLP212 T01610044
KRHV 
17nm SE 
242157Z 16005KT 10SM OVC200 20/M01 A3013
KHAF 
19nm W 
242220Z AUTO 23006KT 7SM CLR 13/08 A3019 RMK AO2
TAF
KSJC 
11nm SE 
241720Z 2418/2518 16005KT P6SM FEW035 FEW250 FM242300 28009KT P6SM FEW030 SCT200 FM250300 16006KT P6SM FEW025 BKN150 FM250800 14011KT P6SM FEW020 SCT040 BKN100 FM251300 13018G26KT P6SM FEW015 SCT035 BKN060 FM251700 14016G24KT P6SM VCSH FEW012 SCT030 OVC050
KOAK 
15nm N 
241720Z 2418/2524 12005KT P6SM FEW010 SCT250 FM242000 27011KT P6SM FEW030 BKN200 FM250300 33008KT P6SM FEW025 BKN150 FM250800 14008KT P6SM FEW020 SCT040 OVC080 FM251500 13013G20KT P6SM VCSH FEW025 BKN035 OVC050 FM251900 15015G22KT P6SM -SHRA SCT020 BKN030 OVC040 FM252200 17016G24KT 6SM -RA BR BKN020 OVC030
KSFO 
15nm NW 
242051Z 2421/2524 35004KT P6SM FEW020 BKN200 FM242230 27009KT P6SM FEW020 BKN180 FM250300 21007KT P6SM FEW020 BKN120 FM250800 13006KT P6SM FEW018 SCT040 OVC080 FM251500 14013G20KT P6SM VCSH FEW018 BKN035 OVC050 FM251800 15014G21KT P6SM -SHRA SCT018 BKN030 OVC040 FM252100 17015G23KT 6SM -RA BR BKN018 OVC030
NOTAMs
Click for the latest NOTAMs
NOTAMs are issued by the DoD/FAA and will open in a separate window not controlled by AirNav.

 

 
 

FBO, Fuel Providers, and Aircraft Ground Support

  
 Business Name 
 
 Contact 
 
 Services / Description 
 
Fuel Prices
 
Comments
  
Rossi Aircraft 650-493-3326
650-493-1673
[web site]
[email]
Aviation fuel, Oxygen service, Aircraft maintenance

More info about Rossi Aircraft
Shell
100LL Jet A
FS $5.15 $4.75 
GUARANTEED
 
   7 read write
West Valley Flying Club 650-856-2030
650-856-7640
[web site]
Aviation fuel, Flight training, Aircraft rental, Aircraft maintenance, Flying club, Pilots lounge / snooze room, Computerized weather, Internet access, Restrooms

More info about West Valley Flying Club
100LL
FS $5.19 
 Updated 14-Mar-2019
 
   write
FS=Full service
Update Fuel Prices
 

Aviation Businesses, Services, and Facilities

  
 Business Name 
 
 Contact 
 
 Services / Description 
 
Distance
 
Comments
  
 Peninsula Avionics
650-858-2000
[web site]
[email]
Avionics sales and service, Aviation accessories, Courtesy transportation
 
FAA-Approved Repair Station   Avidyne   Garmin   S-TEC  
 
More info about Peninsula Avionics
on airport  
   4 read write
Sundance Flying Club 650-494-7768
[web site]
[email]
Flight training, Aircraft rental, Aerial tours / aerial sightseeing, Pilot supplies, Flying club
 
Wireless Internet Access (WiFi)  
 
More info about Sundance Flying Club
on airport  
   write
Stanford Flying Club 650-858-2200
[web site]
[email]
Flight training, Aircraft rental, Aircraft management, Pilot supplies, Flying club, Organization with aviation interests, Pilots lounge / snooze room, Computerized weather, ...

More info about Stanford Flying Club
0.7 miles  
   write
 

Would you like to see your business listed on this page?

 If your business provides an interesting product or service to pilots, flight crews, aircraft, or users of the Palo Alto Airport, you should consider listing it here.  To start the listing process, click on the button below
 
Add a business
 

Other Pages about Palo Alto Airport

www.flystanford.com/kpao.htm
 
Update a link
 
Copyright © AirNav, LLC. All rights reserved. Privacy Policy  Contact